GW1320 Weather Reports


time (UTC)temp
C
wind
direction
speed
KPH
gust
KPH
rain 1hr
cm
rain 24hr
cm
rain mn
cm
humidity
%
barometer
mb
20260510204555 16 5 4.8 16.1 0.00 0.00 0.00 53 1017.1
20260510203048 16 0 6.4 20.9 0.00 0.00 0.00 45 1017.2
20260510201549 17 327 6.4 20.9 0.00 0.00 0.00 50 1017.3
20260510200046 16 352 1.6 8.0 0.00 0.00 0.00 51 1017.4
20260510194552 16 5 1.6 16.1 0.00 0.00 0.00 46 1017.5
20260510193044 17 339 4.8 33.8 0.00 0.00 0.00 46 1017.6
20260510191542 17 286 16.1 25.7 0.00 0.00 0.00 46 1017.6
20260510190050 16 252 12.9 24.1 0.00 0.00 0.00 43 1017.4
20260510184548 16 5 4.8 17.7 0.00 0.00 0.00 52 1017.2
20260510183050 16 338 4.8 14.5 0.00 0.00 0.00 49 1017.3
20260510181602 16 22 4.8 17.7 0.00 0.00 0.00 50 1017.3
20260510174547 16 32 3.2 16.1 0.00 0.00 0.00 52 1016.8
20260510173049 16 0 6.4 20.9 0.00 0.00 0.00 56 1016.9
20260510171550 16 360 6.4 24.1 0.00 0.00 0.00 55 1016.9
20260510170042 16 5 3.2 14.5 0.00 0.00 0.00 58 1017.0
20260510164554 15 22 9.7 24.1 0.00 0.00 0.00 54 1017.2
20260510163048 16 26 3.2 17.7 0.00 0.00 0.00 64 1017.1
20260510161547 15 28 3.2 12.9 0.00 0.00 0.00 59 1017.0
20260510160045 15 316 1.6 12.9 0.00 0.00 0.00 60 1016.9
20260510154541 15 313 4.8 14.5 0.00 0.00 0.00 63 1016.7
20260510153041 15 12 4.8 14.5 0.00 0.00 0.00 60 1016.7
20260510151545 15 41 3.2 11.3 0.00 0.00 0.00 63 1016.5
20260510150104 15 33 4.8 14.5 0.00 0.00 0.00 63 1016.1
20260510144547 14 9 3.2 12.9 0.00 0.00 0.00 64 1016.1
20260510143049 13 59 3.2 12.9 0.00 0.00 0.00 66 1015.8
20260510141549 13 17 1.6 11.3 0.00 0.00 0.00 69 1015.6
20260510140049 12 22 1.6 6.4 0.00 0.00 0.00 71 1015.5
20260510134542 12 115 1.6 6.4 0.00 0.00 0.00 72 1015.3
20260510133047 12 0 1.6 8.0 0.00 0.00 0.00 75 1015.2
20260510131546 11 360 3.2 8.0 0.00 0.00 0.00 75 1015.3
20260510130049 11 360 3.2 6.4 0.00 0.00 0.00 77 1015.1
20260510124544 10 360 3.2 8.0 0.00 0.00 0.00 77 1014.9
20260510123041 10 0 0.0 4.8 0.00 0.00 0.00 79 1014.7
20260510121549 10 360 1.6 4.8 0.00 0.00 0.00 78 1014.5
20260510120050 10 0 0.0 0.0 0.00 0.00 0.00 78 1014.4
20260510114552 10 19 0.0 3.2 0.00 0.00 0.00 78 1014.1
20260510113047 10 0 0.0 3.2 0.00 0.00 0.00 77 1013.5
20260510111541 10 19 1.6 4.8 0.00 0.00 0.00 77 1013.4
20260510110046 10 15 0.0 3.2 0.00 0.00 0.00 77 1013.1
20260510104542 10 0 0.0 4.8 0.00 0.00 0.00 76 1012.7
20260510103049 10 15 1.6 4.8 0.00 0.00 0.00 76 1012.8
20260510101547 11 0 0.0 8.0 0.00 0.00 0.00 75 1012.3
20260510100050 11 346 3.2 8.0 0.00 0.00 0.00 74 1012.1
20260510094552 11 11 3.2 6.4 0.00 0.00 0.00 75 1011.6
20260510093043 11 11 3.2 11.3 0.00 0.00 0.00 75 1011.6
20260510091547 12 13 3.2 11.3 0.00 0.00 0.00 74 1011.2
20260510090059 12 18 4.8 11.3 0.00 0.00 0.00 73 1011.1
20260510084545 12 322 3.2 14.5 0.00 0.00 0.00 74 1010.7
20260510083054 13 21 6.4 14.5 0.00 0.00 0.00 74 1010.4
20260510081544 13 343 3.2 14.5 0.00 0.00 0.00 75 1010.4
20260510080051 13 352 4.8 17.7 0.00 0.00 0.00 74 1010.3
20260510074549 14 32 6.4 14.5 0.00 0.03 0.00 75 1010.2
20260510073053 14 355 6.4 16.1 0.00 0.03 0.00 76 1009.9
20260510071549 15 331 9.7 19.3 0.00 0.03 0.00 77 1010.1
20260510070047 15 346 14.5 24.1 0.00 0.03 0.00 78 1009.8
20260510064542 15 303 16.1 20.9 0.00 0.03 0.00 77 1009.7
20260510063041 15 286 12.9 17.7 0.00 0.03 0.00 77 1009.7
20260510061547 16 277 11.3 20.9 0.00 0.03 0.00 76 1009.6
20260510060051 16 262 17.7 25.7 0.00 0.03 0.00 75 1009.5
20260510054545 16 254 17.7 24.1 0.00 0.03 0.00 74 1009.4
20260510053043 16 266 12.9 20.9 0.00 0.03 0.00 77 1009.3
20260510051541 15 240 4.8 8.0 0.00 0.03 0.00 78 1009.2
20260510050053 15 236 1.6 4.8 0.00 0.03 0.00 76 1009.0
20260510044555 15 0 0.0 4.8 0.00 0.03 0.00 76 1009.0
20260510043050 16 13 3.2 16.1 0.00 0.03 0.00 75 1008.8
20260510041548 16 235 8.0 17.7 0.00 0.03 0.00 73 1008.6
20260510040044 16 234 9.7 14.5 0.00 0.03 0.00 73 1008.6
20260510034542 16 238 9.7 19.3 0.00 0.05 0.03 73 1008.4
20260510033058 16 244 8.0 16.1 0.00 0.05 0.03 75 1008.3
20260510031550 16 241 6.4 11.3 0.00 0.05 0.03 76 1008.1
20260510030059 16 234 6.4 11.3 0.00 0.05 0.03 75 1008.2
20260510024544 16 224 6.4 9.7 0.00 0.08 0.03 73 1008.3
20260510023041 16 201 6.4 11.3 0.00 0.08 0.03 72 1008.1
20260510021547 17 208 3.2 11.3 0.00 0.08 0.03 71 1007.9
20260510020047 17 163 8.0 14.5 0.00 0.08 0.03 69 1007.7
20260510014548 17 182 8.0 14.5 0.00 0.08 0.03 68 1007.4
20260510013046 18 230 6.4 19.3 0.00 0.08 0.03 67 1007.2
20260510011548 18 238 8.0 16.1 0.00 0.08 0.03 66 1007.0
20260510010041 19 233 6.4 14.5 0.00 0.08 0.03 65 1007.0
20260510004547 19 240 8.0 16.1 0.00 0.08 0.03 64 1006.7
20260510003051 20 236 6.4 16.1 0.00 0.08 0.03 63 1006.6
20260510001546 20 220 11.3 19.3 0.00 0.08 0.03 62 1006.3
20260510000048 20 183 11.3 25.7 0.00 0.08 0.03 60 1006.2
20260509234549 20 182 12.9 25.7 0.00 0.08 0.03 61 1006.0
20260509233041 21 219 17.7 27.4 0.00 0.08 0.03 59 1006.0
20260509231548 21 229 16.1 29.0 0.00 0.08 0.03 59 1006.0
20260509230050 21 219 20.9 30.6 0.00 0.08 0.03 57 1006.0
20260509224546 21 208 20.9 33.8 0.00 0.08 0.03 56 1005.9
20260509223049 21 242 22.5 37.0 0.00 0.08 0.03 53 1005.8
20260509221548 22 205 16.1 32.2 0.00 0.08 0.03 55 1005.6
20260509220043 21 223 20.9 33.8 0.00 0.08 0.03 56 1005.6
20260509214543 21 228 22.5 35.4 0.00 0.08 0.03 56 1005.5
20260509213115 21 221 22.5 33.8 0.00 0.08 0.03 58 1005.7
20260509211549 21 221 20.9 37.0 0.00 0.08 0.03 57 1005.9
20260509210101 21 206 16.1 43.5 0.00 0.08 0.03 60 1005.8